Location: Aranbee
(34.0885°N, 118.2342°W)
Time: 16:35:05
(UTC+00:00)

A-11 Canister half - Visible Passes

Search period start: 24 September 2022 00:00
Search period end: 04 October 2022 00:00
Orbit: 1515 x 1684 km, 47.2° (Epoch: 23 September)

Date Brightness Start Highest point End Pass type
(mag) Time Alt. Az. Time Alt. Az. Time Alt. Az.
24 Sep 10.2 09:11:02 31° NNE 09:11:02 31° NNE 09:16:37 10° ENE visible
24 Sep 9.8 11:09:15 21° NW 11:15:05 43° NNE 11:23:46 10° E visible
24 Sep 9.0 13:11:26 10° NW 13:20:44 86° SW 13:30:07 10° SE visible
25 Sep 10.6 04:25:58 10° SSW 04:27:26 15° S 04:27:26 15° S visible
25 Sep 10.5 08:49:33 26° NE 08:49:33 26° NE 08:53:37 10° ENE visible
25 Sep 9.8 10:47:46 28° NW 10:52:03 42° NNE 11:00:42 10° E visible
25 Sep 9.0 12:48:31 10° NW 12:57:49 89° NE 13:07:11 10° SE visible
26 Sep 10.2 04:03:16 10° S 04:06:53 22° S 04:06:53 22° S visible
26 Sep 10.8 08:28:08 19° NE 08:28:08 19° NE 08:30:38 10° NE visible
26 Sep 9.8 10:26:22 34° NNW 10:29:03 41° NNE 10:37:39 10° E visible
26 Sep 9.0 12:25:36 10° NW 12:34:54 85° NE 12:44:15 10° SE visible
27 Sep 9.8 03:40:36 10° S 03:46:23 28° SSE 03:46:23 28° SSE visible
27 Sep 10.8 05:43:23 10° WSW 05:44:40 15° WSW 05:44:40 15° WSW visible
27 Sep 11.0 08:06:50 13° NE 08:06:50 13° NE 08:07:40 10° NE visible
27 Sep 9.8 10:05:04 39° N 10:06:02 40° NNE 10:14:34 10° E visible
27 Sep 9.0 12:03:18 12° NW 12:11:58 81° NE 12:21:18 10° ESE visible
28 Sep 9.7 03:17:57 10° S 03:25:51 29° SE 03:25:51 29° SE visible
28 Sep 10.3 05:20:24 10° SW 05:24:08 27° SW 05:24:08 27° SW visible
28 Sep 9.9 09:43:53 38° NNE 09:43:53 38° NNE 09:51:31 10° ENE visible
28 Sep 9.0 11:42:07 20° NW 11:49:03 77° NE 11:58:21 10° ESE visible
29 Sep 9.8 02:55:20 10° S 03:03:03 27° SE 03:05:16 25° ESE visible
29 Sep 9.6 04:57:26 10° SW 05:03:34 45° SW 05:03:34 45° SW visible
29 Sep11.507:24:34ENE07:24:34ENE07:01:51Wvisible
29 Sep 10.2 09:22:49 32° NE 09:22:49 32° NE 09:28:27 10° ENE visible
29 Sep 9.0 11:21:04 31° NW 11:26:06 74° NNE 11:35:23 10° ESE visible
29 Sep 9.5 13:22:22 10° WNW 13:30:28 36° SW 13:38:40 10° SSE visible
30 Sep 9.9 02:32:46 10° S 02:40:12 25° SE 02:44:37 18° E visible
30 Sep 9.0 04:34:29 10° SW 04:42:54 70° SW 04:42:54 70° SW visible
30 Sep 11.2 06:40:59 10° W 06:41:11 11° W 06:41:11 11° W visible
30 Sep 10.6 09:01:54 23° ENE 09:01:54 23° ENE 09:05:23 10° ENE visible
30 Sep 9.0 11:00:10 47° NW 11:03:10 70° NNE 11:12:25 10° ESE visible
30 Sep 9.4 12:59:20 10° WNW 13:07:37 39° SW 13:15:59 10° SSE visible
01 Oct 10.0 02:10:14 10° S 02:17:20 23° SE 02:23:52 11° E visible
01 Oct 8.8 04:11:32 10° SW 04:21:22 82° SE 04:22:08 76° E visible
01 Oct 10.7 06:17:52 10° W 06:20:24 19° W 06:20:24 19° W visible
01 Oct 11.0 08:41:06 14° ENE 08:41:06 14° ENE 08:42:20 10° ENE visible
01 Oct 9.0 10:39:22 64° N 10:40:13 67° NNE 10:49:26 10° ESE visible
01 Oct 9.3 12:37:39 15° WNW 12:44:46 42° SW 12:53:16 10° SSE visible
02 Oct 10.1 01:47:44 10° S 01:54:28 21° SE 02:01:03 10° E visible
02 Oct 8.9 03:48:37 10° SW 03:58:26 77° SE 04:01:14 52° ENE visible
02 Oct 10.3 05:54:46 10° W 05:59:29 30° WNW 05:59:29 30° WNW visible
02 Oct 9.3 10:18:41 58° ENE 10:18:41 58° ENE 10:26:26 10° ESE visible
02 Oct 9.2 12:16:58 25° WNW 12:21:54 45° SW 12:30:32 10° SSE visible
03 Oct 8.9 03:25:42 10° SW 03:35:31 73° SE 03:40:12 35° ENE visible
03 Oct 9.9 05:31:41 10° W 05:38:27 41° WNW 05:38:27 41° WNW visible
03 Oct 9.9 09:58:05 38° E 09:58:05 38° E 10:03:27 10° ESE visible
03 Oct 9.1 11:56:23 39° W 11:59:03 48° SW 12:07:47 10° SSE visible
